{"data":{"norad_id":62471,"epoch":"2026-05-24T23:45:44.646912Z","epoch_age_seconds":69178,"freshness":"FRESH","line1":"1 62471U 24254K   26144.99010008  .00198080  00000+0  15106-2 0  9991","line2":"2 62471  42.9985 122.8537 0001893 256.4165 103.6491 15.70840111 81390","mean_motion":15.70840111,"eccentricity":0.0001893,"inclination_deg":42.9985,"raan_deg":122.8537,"arg_perigee_deg":256.4165,"mean_anomaly_deg":103.6491,"bstar":0.0015106,"rev_number":8139,"period_min":91.670692002084,"perigee_km":355.21987852061,"apogee_km":357.76961009901,"semimajor_km":6734.6317443098,"source":"CELESTRAK","updated_at":"2026-05-25T13:38:19.693143Z"}}